When you browse on this site, cookies collect data to enhance your experience and personalize the content and advertising you see.
Visit our Privacy Policy to learn more. By continuing to use the site, you agree to this use of cookies and data.
  • en France
  • Liste des pays
  • À 7 jours
  • Température de l'eau
  • Carte météo
  • Widgets météo
  • user-avatar
    Se connecter

    Météo par heure à Kipungo

    Ce jour, 6 Juin, Samedi

    Heure Température Précipitation Vent Pression Humidité
    00:00 +14°C° 0 mm 0 m/s 655 mmHg 46%
    01:00 +13°C° 0 mm 0 m/s 654 mmHg 47%
    02:00 +12°C° 0 mm 0 m/s 654 mmHg 49%
    03:00 +12°C° 0 mm 0 m/s 654 mmHg 50%
    04:00 +11°C° 0 mm 0 m/s 653 mmHg 52%
    05:00 +12°C° 0 mm 0 m/s 654 mmHg 52%
    06:00 +12°C° 0 mm 0 m/s 655 mmHg 52%
    07:00 +13°C° 0 mm 0 m/s 655 mmHg 50%
    08:00 +18°C° 0 mm 1 m/s 656 mmHg 42%
    09:00 +21°C° 0 mm 2 m/s 657 mmHg 34%
    10:00 +25°C° 0 mm 3 m/s 658 mmHg 26%
    11:00 +27°C° 0 mm 3 m/s 657 mmHg 23%
    12:00 +29°C° 0 mm 3 m/s 657 mmHg 20%
    13:00 +30°C° 0 mm 3 m/s 657 mmHg 17%
    14:00 +30°C° 0 mm 2 m/s 656 mmHg 17%
    15:00 +30°C° 0 mm 2 m/s 656 mmHg 16%
    16:00 +30°C° 0 mm 1 m/s 655 mmHg 16%
    17:00 +27°C° 0 mm 1 m/s 655 mmHg 21%
    18:00 +23°C° 0 mm 1 m/s 654 mmHg 27%
    19:00 +20°C° 0 mm 1 m/s 654 mmHg 32%
    20:00 +19°C° 0 mm 1 m/s 654 mmHg 34%
    21:00 +18°C° 0 mm 1 m/s 654 mmHg 35%
    22:00 +16°C° 0 mm 1 m/s 655 mmHg 37%
    23:00 +15°C° 0 mm 1 m/s 654 mmHg 40%

    Demain, 7 Juin, Dimanche

    Heure Température Précipitation Vent Pression Humidité
    00:00 +14°C° 0 mm 1 m/s 654 mmHg 42%
    01:00 +12°C° 0 mm 0 m/s 653 mmHg 45%
    02:00 +11°C° 0 mm 0 m/s 653 mmHg 47%
    03:00 +11°C° 0 mm 0 m/s 653 mmHg 49%
    04:00 +10°C° 0 mm 0 m/s 653 mmHg 51%
    05:00 +10°C° 0 mm 0 m/s 653 mmHg 51%
    06:00 +12°C° 0 mm 1 m/s 654 mmHg 51%
    07:00 +12°C° 0 mm 1 m/s 654 mmHg 50%
    08:00 +16°C° 0 mm 2 m/s 655 mmHg 43%
    09:00 +20°C° 0 mm 2 m/s 656 mmHg 35%
    10:00 +24°C° 0 mm 3 m/s 656 mmHg 27%
    11:00 +26°C° 0 mm 3 m/s 656 mmHg 25%
    12:00 +28°C° 0 mm 3 m/s 656 mmHg 22%
    13:00 +30°C° 0 mm 2 m/s 656 mmHg 19%
    14:00 +30°C° 0 mm 2 m/s 655 mmHg 19%
    15:00 +30°C° 0 mm 1 m/s 655 mmHg 19%
    16:00 +30°C° 0 mm 1 m/s 655 mmHg 18%
    17:00 +26°C° 0 mm 1 m/s 654 mmHg 23%
    18:00 +23°C° 0 mm 1 m/s 654 mmHg 28%
    19:00 +20°C° 0 mm 1 m/s 654 mmHg 32%
    20:00 +19°C° 0 mm 1 m/s 654 mmHg 34%
    21:00 +18°C° 0 mm 1 m/s 654 mmHg 36%
    22:00 +16°C° 0 mm 1 m/s 654 mmHg 38%
    23:00 +15°C° 0 mm 1 m/s 653 mmHg 41%

    Après-demain, 8 Juin, Lundi

    Heure Température Précipitation Vent Pression Humidité
    00:00 +14°C° 0 mm 1 m/s 653 mmHg 43%
    01:00 +13°C° 0 mm 1 m/s 653 mmHg 45%
    02:00 +11°C° 0 mm 0 m/s 652 mmHg 47%
    03:00 +11°C° 0 mm 0 m/s 652 mmHg 48%
    04:00 +10°C° 0 mm 0 m/s 652 mmHg 50%
    05:00 +11°C° 0 mm 0 m/s 652 mmHg 50%
    06:00 +11°C° 0 mm 0 m/s 653 mmHg 49%
    07:00 +12°C° 0 mm 1 m/s 653 mmHg 49%
    08:00 +16°C° 0 mm 2 m/s 654 mmHg 42%
    09:00 +20°C° 0 mm 2 m/s 655 mmHg 35%
    10:00 +25°C° 0 mm 3 m/s 656 mmHg 28%
    11:00 +27°C° 0 mm 3 m/s 656 mmHg 25%
    12:00 +29°C° 0 mm 2 m/s 655 mmHg 22%
    13:00 +31°C° 0 mm 2 m/s 655 mmHg 19%
    14:00 +31°C° 0 mm 1 m/s 655 mmHg 19%
    15:00 +31°C° 0 mm 1 m/s 655 mmHg 19%
    16:00 +30°C° 0 mm 1 m/s 654 mmHg 18%
    17:00 +27°C° 0 mm 1 m/s 654 mmHg 24%
    18:00 +24°C° 0 mm 1 m/s 653 mmHg 29%
    19:00 +20°C° 0 mm 1 m/s 653 mmHg 35%
    20:00 +19°C° 0 mm 1 m/s 653 mmHg 37%
    21:00 +18°C° 0 mm 1 m/s 653 mmHg 40%
    22:00 +16°C° 0 mm 2 m/s 653 mmHg 42%
    23:00 +15°C° 0 mm 1 m/s 653 mmHg 46%

    9 Juin, Mardi

    Heure Température Précipitation Vent Pression Humidité
    00:00 +14°C° 0 mm 1 m/s 653 mmHg 49%
    01:00 +13°C° 0 mm 1 m/s 653 mmHg 53%
    02:00 +13°C° 0 mm 1 m/s 652 mmHg 55%
    03:00 +11°C° 0 mm 0 m/s 652 mmHg 57%
    04:00 +11°C° 0 mm 0 m/s 652 mmHg 59%
    05:00 +11°C° 0 mm 0 m/s 652 mmHg 58%
    06:00 +11°C° 0 mm 0 m/s 653 mmHg 58%
    07:00 +12°C° 0 mm 0 m/s 653 mmHg 57%
    08:00 +16°C° 0 mm 0 m/s 654 mmHg 46%
    09:00 +21°C° 0 mm 0 m/s 656 mmHg 35%
    10:00 +27°C° 0 mm 1 m/s 657 mmHg 24%
    11:00 +29°C° 0 mm 1 m/s 657 mmHg 22%
    12:00 +30°C° 0 mm 0 m/s 656 mmHg 19%
    13:00 +32°C° 0 mm 0 m/s 656 mmHg 17%
    14:00 +31°C° 0 mm 0 m/s 656 mmHg 17%
    15:00 +31°C° 0 mm 1 m/s 655 mmHg 18%
    16:00 +30°C° 0 mm 1 m/s 654 mmHg 18%
    17:00 +27°C° 0 mm 1 m/s 654 mmHg 24%
    18:00 +23°C° 0 mm 1 m/s 654 mmHg 29%
    19:00 +20°C° 0 mm 1 m/s 653 mmHg 35%
    20:00 +19°C° 0 mm 1 m/s 653 mmHg 37%
    21:00 +17°C° 0 mm 2 m/s 654 mmHg 39%
    22:00 +16°C° 0 mm 2 m/s 654 mmHg 42%
    23:00 +15°C° 0 mm 2 m/s 654 mmHg 45%

    10 Juin, Mercredi

    Heure Température Précipitation Vent Pression Humidité
    00:00 +14°C° 0 mm 1 m/s 653 mmHg 49%
    01:00 +13°C° 0 mm 1 m/s 653 mmHg 52%
    02:00 +13°C° 0 mm 1 m/s 653 mmHg 54%
    03:00 +11°C° 0 mm 0 m/s 653 mmHg 57%
    04:00 +10°C° 0 mm 0 m/s 652 mmHg 59%
    05:00 +11°C° 0 mm 0 m/s 653 mmHg 58%
    06:00 +11°C° 0 mm 0 m/s 653 mmHg 57%
    07:00 +11°C° 0 mm 0 m/s 654 mmHg 56%
    08:00 +16°C° 0 mm 0 m/s 655 mmHg 45%
    09:00 +22°C° 0 mm 1 m/s 656 mmHg 34%
    10:00 +26°C° 0 mm 1 m/s 657 mmHg 22%
    11:00 +28°C° 0 mm 1 m/s 657 mmHg 21%
    12:00 +31°C° 0 mm 1 m/s 657 mmHg 19%
    13:00 +33°C° 0 mm 1 m/s 657 mmHg 17%
    14:00 +32°C° 0 mm 1 m/s 656 mmHg 17%
    15:00 +29°C° 0 mm 0 m/s 655 mmHg 17%
    16:00 +29°C° 0 mm 0 m/s 655 mmHg 17%
    17:00 +25°C° 0 mm 0 m/s 654 mmHg 23%
    18:00 +23°C° 0 mm 1 m/s 653 mmHg 29%
    19:00 +20°C° 0 mm 1 m/s 653 mmHg 34%
    20:00 +19°C° 0 mm 1 m/s 653 mmHg 35%
    21:00 +18°C° 0 mm 1 m/s 653 mmHg 36%
    22:00 +16°C° 0 mm 2 m/s 653 mmHg 37%
    23:00 +15°C° 0 mm 2 m/s 653 mmHg 36%

    11 Juin, Jeudi

    Heure Température Précipitation Vent Pression Humidité
    00:00 +15°C° 0 mm 2 m/s 653 mmHg 35%
    01:00 +14°C° 0 mm 2 m/s 653 mmHg 35%
    02:00 +14°C° 0 mm 1 m/s 652 mmHg 36%
    03:00 +13°C° 0 mm 1 m/s 652 mmHg 38%
    04:00 +11°C° 0 mm 0 m/s 652 mmHg 40%
    05:00 +11°C° 0 mm 0 m/s 652 mmHg 40%
    06:00 +11°C° 0 mm 0 m/s 653 mmHg 41%
    07:00 +11°C° 0 mm 0 m/s 653 mmHg 41%
    08:00 +16°C° 0 mm 0 m/s 654 mmHg 34%
    09:00 +21°C° 0 mm 0 m/s 656 mmHg 26%
    10:00 +28°C° 0 mm 1 m/s 657 mmHg 19%
    11:00 +30°C° 0 mm 1 m/s 657 mmHg 18%
    12:00 +30°C° 0 mm 0 m/s 656 mmHg 17%
    13:00 +32°C° 0 mm 0 m/s 656 mmHg 16%
    14:00 +33°C° 0 mm 1 m/s 655 mmHg 16%
    15:00 +32°C° 0 mm 1 m/s 655 mmHg 16%
    16:00 +31°C° 0 mm 1 m/s 654 mmHg 16%
    17:00 +27°C° 0 mm 1 m/s 654 mmHg 21%
    18:00 +24°C° 0 mm 1 m/s 653 mmHg 25%
    19:00 +20°C° 0 mm 1 m/s 653 mmHg 30%
    20:00 +19°C° 0 mm 1 m/s 653 mmHg 32%
    21:00 +18°C° 0 mm 1 m/s 653 mmHg 34%
    22:00 +16°C° 0 mm 2 m/s 654 mmHg 36%
    23:00 +15°C° 0 mm 2 m/s 653 mmHg 38%
    Voir plus